TimePST,TemperatureF,Dew PointF,Humidity,Sea Level PressureIn,VisibilityMPH,Wind Direction,Wind SpeedMPH,Gust SpeedMPH,PrecipitationIn,Events,Conditions,WindDirDegrees,DateUTC
12:58 AM,43.3,24.6,48,29.85,10.0,WNW,24.2,28.8,N/A,,Clear,300,2012-12-19 08:58:00
1:58 AM,41.7,23.0,47,29.89,10.0,NNW,12.7,27.6,N/A,,Clear,330,2012-12-19 09:58:00
2:58 AM,41.0,16.9,38,29.93,10.0,WNW,31.1,35.7,N/A,,Clear,300,2012-12-19 10:58:00
3:58 AM,39.6,16.9,40,29.98,10.0,NW,23.0,32.2,N/A,,Clear,310,2012-12-19 11:58:00
4:58 AM,38.7,14.0,37,30.03,10.0,WNW,19.6,-,N/A,,Clear,300,2012-12-19 12:58:00
5:58 AM,38.3,13.1,36,30.08,10.0,WNW,24.2,32.2,N/A,,Clear,300,2012-12-19 13:58:00
6:58 AM,37.2,14.9,40,30.15,10.0,WNW,2.3,-,N/A,,Clear,300,2012-12-19 14:58:00
7:58 AM,39.4,12.2,33,30.22,10.0,WNW,18.4,25.3,N/A,,Clear,300,2012-12-19 15:58:00
8:58 AM,40.8,11.1,30,30.26,10.0,WNW,13.8,24.2,N/A,,Clear,300,2012-12-19 16:58:00
9:58 AM,42.6,10.2,27,30.27,10.0,NE,8.1,-,N/A,,Clear,50,2012-12-19 17:58:00
10:58 AM,44.6,8.8,23,30.27,10.0,NNE,17.3,-,N/A,,Clear,30,2012-12-19 18:58:00
11:58 AM,45.9,4.3,18,30.28,10.0,NNE,20.7,27.6,N/A,,Clear,30,2012-12-19 19:58:00
12:58 PM,46.4,6.1,19,30.28,10.0,NE,23.0,-,N/A,,Clear,40,2012-12-19 20:58:00
1:58 PM,45.7,4.1,18,30.28,10.0,North,16.1,-,N/A,,Clear,10,2012-12-19 21:58:00
2:58 PM,46.0,2.5,17,30.31,10.0,NNE,15.0,-,N/A,,Clear,30,2012-12-19 22:58:00
3:58 PM,45.0,5.5,20,30.33,10.0,NNE,13.8,-,N/A,,Clear,20,2012-12-19 23:58:00
4:58 PM,42.4,9.0,25,30.35,10.0,NNE,8.1,-,N/A,,Clear,20,2012-12-20 00:58:00
5:58 PM,38.3,16.3,41,30.38,10.0,ENE,10.4,-,N/A,,Clear,70,2012-12-20 01:58:00
6:58 PM,36.3,18.0,47,30.40,10.0,ENE,8.1,-,N/A,,Clear,60,2012-12-20 02:58:00
7:58 PM,34.9,19.2,53,30.42,10.0,East,6.9,-,N/A,,Clear,80,2012-12-20 03:58:00
8:58 PM,34.2,19.4,55,30.43,10.0,ENE,8.1,-,N/A,,Clear,70,2012-12-20 04:58:00
9:58 PM,33.4,19.2,56,30.44,10.0,ENE,10.4,-,N/A,,Clear,70,2012-12-20 05:58:00
10:58 PM,33.6,18.7,54,30.46,10.0,ENE,8.1,-,N/A,,Clear,60,2012-12-20 06:58:00
11:58 PM,33.8,18.0,52,30.45,10.0,East,8.1,-,N/A,,Clear,80,2012-12-20 07:58:00